This demonstration page uses our WeatherBlox Daily Observations layout. Learn more.

Left ArrowRight Arrow

39.51506, -84.39828

Hourly Observations for May 15, 2017

Temp ( °F °C ) Dew Point ( °F °C ) Humidity (%) Winds ( mph kmh ) Pressure ( in mb ) Visibility ( mi km ) Precip ( " mm )
12:15 am 00:15 Partly Cloudy 73 22.8 50 9.9 44 44 NNW 6 9 29.91 1013 10 16 N/A
12:35 am 00:35 Partly Cloudy 69 20.8 50 10.2 51 51 N N/A 29.91 1013 10 16 N/A
12:55 am 00:55 Partly Cloudy 65 18.4 53 11.5 64 64 N N/A 29.91 1013 10 16 N/A
1:15 am 01:15 Partly Cloudy 62 16.9 52 11 68 68 N N/A 29.91 1013 10 16 N/A
1:35 am 01:35 Mostly Cloudy 64 17.7 54 12.4 71 71 NE 7 11 29.91 1013 10 16 N/A
1:55 am 01:55 Mostly Cloudy 65 18.1 51 10.7 62 62 NE 5 7 29.94 1014 10 16 N/A
2:15 am 02:15 Partly Cloudy 64 18 51 10.5 62 62 NNE 7 11 29.94 1014 10 16 N/A
2:35 am 02:35 Partly Cloudy 62 16.8 50 10 64 64 NNE 5 7 29.94 1014 10 16 N/A
2:55 am 02:55 Clear 61 16.2 50 9.8 66 66 NNE 5 7 29.94 1014 10 16 N/A
3:15 am 03:15 Clear 62 16.6 49 9.4 63 63 NNE 5 7 29.94 1014 10 16 N/A
3:35 am 03:35 Clear 61 16 49 9.5 66 66 NNE 3 6 29.94 1014 10 16 N/A
3:55 am 03:55 Clear 61 15.9 48 9 64 64 NNE 5 7 29.97 1015 10 16 N/A
4:15 am 04:15 Clear 60 15.3 47 8.5 64 64 NE 5 7 29.97 1015 10 16 N/A
4:35 am 04:35 Clear 60 15.3 47 8.1 62 62 ENE 5 7 29.97 1015 10 16 N/A
4:55 am 04:55 Clear 60 15.3 47 8.2 63 63 ENE 5 7 29.97 1015 10 16 N/A
5:15 am 05:15 Clear 59 15.2 46 8 62 62 ENE 5 7 30.03 1017 10 16 N/A
5:35 am 05:35 Clear 57 13.8 44 6.4 61 61 ENE 5 7 30.03 1017 10 16 N/A
5:55 am 05:55 Clear 57 13.8 42 5.6 58 58 NE 5 7 30.03 1017 10 16 N/A
6:15 am 06:15 Clear 57 13.8 41 5 56 56 NE 3 6 30.03 1017 10 16 N/A
6:35 am 06:35 Sunny 57 13.8 41 5.1 56 56 NE 3 6 30.03 1017 10 16 N/A
6:55 am 06:55 Sunny 57 13.8 41 5.2 56 56 N N/A 30.03 1017 10 16 N/A
7:15 am 07:15 Sunny 57 13.8 42 5.6 58 58 N N/A 30.06 1018 10 16 N/A
7:35 am 07:35 Sunny 57 13.9 39 3.8 51 51 NE 3 6 30.06 1018 10 16 N/A
7:55 am 07:55 Sunny 60 15.3 38 3.3 45 45 ENE 5 7 30.06 1018 10 16 N/A
8:15 am 08:15 Sunny 60 15.3 37 2.5 42 42 NE 6 9 30.06 1018 10 16 N/A
8:35 am 08:35 Sunny 61 16 36 2.1 39 39 ENE 5 7 30.09 1019 10 16 N/A
8:55 am 08:55 Sunny 62 16.6 36 2.2 38 38 E 6 9 30.06 1018 10 16 N/A
9:15 am 09:15 Sunny 63 17 36 2.3 37 37 E 8 13 30.06 1018 10 16 N/A
9:35 am 09:35 Sunny 64 17.5 36 2.1 36 36 E 6 9 30.06 1018 10 16 N/A
9:55 am 09:55 Sunny 67 19.5 37 3 34 34 E 5 7 30.06 1018 10 16 N/A
10:15 am 10:15 Sunny 69 20.5 38 3.5 33 33 E 7 11 30.06 1018 10 16 N/A
10:35 am 10:35 Sunny 69 20.8 37 2.6 30 30 E 6 9 30.06 1018 10 16 N/A
10:55 am 10:55 Sunny 69 20.8 36 2.1 29 29 SE 6 9 30.03 1017 10 16 N/A
11:15 am 11:15 Sunny 69 20.8 35 1.8 28 28 ESE 5 7 30.03 1017 10 16 N/A
11:35 am 11:35 Sunny 71 21.4 36 2.2 28 28 E 6 9 30.03 1017 10 16 N/A
11:55 am 11:55 Sunny 71 21.9 37 3 29 29 SSE 5 7 30.03 1017 10 16 N/A
12:15 pm 12:15 Sunny 74 23.3 40 4.6 30 30 E 7 11 30.03 1017 10 16 N/A
12:35 pm 12:35 Sunny 74 23.5 42 5.4 31 31 ENE 6 9 30.03 1017 10 16 N/A
12:55 pm 12:55 Sunny 74 23.6 42 5.8 32 32 SSE 3 6 30.03 1017 10 16 N/A
1:15 pm 13:15 Sunny 74 23.6 43 6.1 32 32 SSE 3 6 30.03 1017 10 16 N/A
1:35 pm 13:35 Sunny 75 23.7 42 5.3 30 30 N N/A 30.00 1016 10 16 N/A
1:55 pm 13:55 Sunny 76 24.3 44 6.6 32 32 ENE 3 6 30.00 1016 10 16 N/A
2:15 pm 14:15 Sunny 77 25.1 44 6.8 31 31 ENE 6 9 30.00 1016 10 16 N/A
2:35 pm 14:35 Sunny 77 25.1 45 7.4 32 32 ESE 6 9 30.00 1016 10 16 N/A
2:55 pm 14:55 Sunny 77 25.1 44 6.9 31 31 N N/A 30.00 1016 10 16 N/A
3:15 pm 15:15 Sunny 78 25.5 44 6.5 30 30 N N/A 30.00 1016 10 16 N/A
3:35 pm 15:35 Sunny 79 26.2 47 8.5 33 33 E 6 9 30.00 1016 10 16 N/A
3:55 pm 15:55 Sunny 80 26.5 46 7.6 30 30 N N/A 29.97 1015 10 16 N/A
4:15 pm 16:15 Sunny 80 26.5 46 7.9 31 31 N N/A 29.97 1015 10 16 N/A
4:35 pm 16:35 Sunny 80 26.7 46 7.8 30 30 N N/A 29.97 1015 10 16 N/A
4:55 pm 16:55 Sunny 80 26.5 45 7.3 30 30 E 5 7 29.97 1015 10 16 N/A
5:15 pm 17:15 Sunny 80 26.5 47 8.4 32 32 WSW 5 7 29.94 1014 10 16 N/A
5:35 pm 17:35 Sunny 80 26.5 44 6.9 29 29 N N/A 29.94 1014 10 16 N/A
5:55 pm 17:55 Sunny 81 27 49 9.7 34 34 WSW 3 6 29.94 1014 10 16 N/A
6:15 pm 18:15 Sunny 81 27 49 9.3 33 33 SSE 5 7 29.94 1014 10 16 N/A
6:35 pm 18:35 Sunny 81 27 46 8 30 30 N N/A 29.94 1014 10 16 N/A
6:55 pm 18:55 Sunny 81 27 49 9.2 33 33 N N/A 29.94 1014 10 16 N/A
7:15 pm 19:15 Sunny 80 26.5 49 9.2 34 34 N N/A 29.94 1014 10 16 N/A
7:35 pm 19:35 Sunny 80 26.5 51 10.8 37 37 E 3 6 29.94 1014 7 11 N/A
7:55 pm 19:55 Sunny 77 25.1 56 13.4 48 48 NE 3 6 29.97 1015 10 16 N/A
8:15 pm 20:15 Sunny 74 23.6 55 12.9 51 51 NE 3 6 29.97 1015 10 16 N/A
8:35 pm 20:35 Partly Cloudy 74 23.6 59 15 59 59 N N/A 29.97 1015 10 16 N/A
8:55 pm 20:55 Partly Cloudy 70 21.1 59 14.9 68 68 N N/A 29.97 1015 10 16 N/A
9:15 pm 21:15 Partly Cloudy 69 20.8 59 15.1 70 70 N N/A 29.97 1015 10 16 N/A
9:35 pm 21:35 Clear 67 19.6 59 15.2 76 76 N N/A 29.97 1015 10 16 N/A
9:55 pm 21:55 Clear 65 18.5 58 14.2 76 76 N N/A 29.97 1015 10 16 N/A
10:15 pm 22:15 Clear 64 18 57 13.8 77 77 N N/A 29.97 1015 10 16 N/A
10:35 pm 22:35 Clear 67 19.5 57 14 71 71 N N/A 29.97 1015 10 16 N/A
10:55 pm 22:55 Clear 63 17.1 56 13.1 77 77 N N/A 29.97 1015 10 16 N/A
11:15 pm 23:15 Clear 66 18.8 56 13.4 71 71 N N/A 29.97 1015 10 16 N/A
11:35 pm 23:35 Clear 65 18.6 54 12.3 67 67 N N/A 29.97 1015 10 16 N/A
11:55 pm 23:55 Clear 69 20.8 53 11.8 57 57 N N/A 29.97 1015 10 16 N/A

Powered by AerisWeather